Regional Weather Roundup
Issued by NWS Midland/Odessa, TX

Home | Current Version | Previous Version | Text Only | Print | Product List | Glossary On
Versions: 1 2 3 4 5 6 7 8 9 10 11 12 13 14 15 16 17 18 19 20 21 22 23 24 25 26 27 28 29 30 31 32 33 34 35 36 37 38 39 40 41 42 43 44 45 46 47 48 49 50
733
ASUS44 KMAF 250110
RWRMAF
MIDLAND AREA WEATHER ROUNDUP
NATIONAL WEATHER SERVICE MIDLAND TX
700 PM CST FRI NOV 24 2017

...IN SOUTHWEST TEXAS AND SOUTHEAST NEW MEXICO...

CITY           SKY/WX    TMP DP  RH WIND       PRES   REMARKS
ALPINE         CLEAR     67  23  19 W5        30.04R
ANDREWS        FAIR      71  30  21 SW12      29.83R
ARTESIA        CLEAR     68  28  22 SW14      29.86R
BIG SPRING     CLEAR     62  32  32 S9        29.81F
CARLSBAD       CLEAR     64  29  26 W8        29.84R
DRYDEN           N/A     67  37  33 S5        29.85R
FORT STOCKTON  CLEAR     71  29  21 W3        29.86R
GUAD PASS      CLEAR     63  25  23 W18       30.03R
HOBBS          CLEAR     61  28  29 SW7       29.84S
LAMESA         FAIR      66  30  26 SW12      29.80R
MARFA          CLEAR     63  24  22 W3        30.03R
MIDLAND AIRPK  CLEAR     70  32  24 SW7       29.82S
MIDLAND INTL   CLEAR     63  31  30 CALM      29.82R
ODESSA         CLEAR     69  29  22 SW6       29.83R
PECOS          CLEAR     72  27  18 SW8       29.83R
PRESIDIO       FAIR      68  27  21 N3        29.94R
SEMINOLE       CLEAR     63  29  27 SW6       29.83R
SNYDER         CLEAR     66  33  29 S8        29.77S
WINK           CLEAR     66  27  23 SW6       29.82R
$$
...OTHER STATIONS IN TEXAS...

CITY           SKY/WX    TMP DP  RH WIND       PRES   REMARKS
ABILENE        CLEAR     65  36  34 S10       29.76R
AMARILLO       CLOUDY    65  30  27 CALM      29.79R
AUSTIN         CLOUDY    56  41  57 S6        29.86S
BROWNSVILLE    CLEAR     66  59  78 SE7       29.93S
CORPUS CHRISTI PTCLDY    64  51  62 SE9       29.91R
DALLAS FTW     CLOUDY    68  38  33 S12       29.78R
DEL RIO        CLOUDY    69  43  38 SE9       29.83S
EL PASO        PTCLDY    67  27  22 E6        29.96R
HOUSTON INT    PTCLDY    61  47  59 S8        29.92R
LUBBOCK        PTCLDY    64  26  23 W10       29.77R
SAN ANGELO     CLEAR     67  34  29 S9        29.81R
SAN ANTONIO    CLOUDY    67  38  34 S6        29.88R
WACO           CLOUDY    66  39  37 S15       29.82S
WICHITA FALLS  MOCLDY    64  41  42 N6        29.77R
$$
...OTHER LOCATIONS IN NEW MEXICO...

CITY           SKY/WX    TMP DP  RH WIND       PRES   REMARKS
ALAMOGORDO     CLEAR     61  28  29 CALM      29.99R
ALBUQUERQUE    CLOUDY    60  23  24 VRB3      30.01R
CANNON AFB     CLOUDY    69  22  17 W14       29.84R
CLOVIS         CLOUDY    61  28  28 W7        29.83R
HOLLOMAN AFB   CLEAR     58  27  31 CALM      29.99R
ROSWELL        CLOUDY    60  29  30 W3        29.86R
RUIDOSO        CLEAR     61  16  17 NW13      30.11R
SANTA FE       CLEAR     53  28  38 N6        30.04R
TRUTH OR CONSE CLEAR    N/A N/A N/A CALM      29.99R
TUCUMCARI      CLOUDY    64  24  21 W10       29.79R
$$




USA.gov is the U.S. government's official web portal to all federal, state and local government web resources and services.